| time (UTC) | temp F | wind direction | speed knots | gust knots | rain 1hr in | rain 24hr in | rain mn in | humidity % | barometer mb |
| 20260905164910 | 70 | 281 | 7.0 | 11.3 | 0.00 | 0.01 | 0.01 | 100 | 1020.4 |
| 20260905163710 | 71 | 261 | 5.2 | 9.6 | 0.00 | 0.01 | 0.01 | 100 | 1020.3 |
| 20260905162509 | 71 | 244 | 5.2 | 10.4 | 0.00 | 0.01 | 0.01 | 100 | 1020.3 |
| 20260905161308 | 71 | 251 | 13.0 | 16.5 | 0.00 | 0.01 | 0.01 | 100 | 1020.2 |
| 20260905160108 | 71 | 274 | 10.4 | 16.5 | 0.00 | 0.01 | 0.01 | 100 | 1019.9 |
| 20260905154908 | 72 | 244 | 7.0 | 16.5 | 0.00 | 0.01 | 0.01 | 100 | 1019.7 |
| 20260905153706 | 72 | 261 | 7.0 | 15.6 | 0.00 | 0.01 | 0.01 | 100 | 1019.6 |
| 20260905152506 | 73 | 248 | 8.7 | 14.8 | 0.00 | 0.01 | 0.01 | 100 | 1019.6 |
| 20260905151305 | 73 | 272 | 9.6 | 14.8 | 0.00 | 0.01 | 0.01 | 100 | 1019.7 |
| 20260905150104 | 72 | 232 | 12.2 | 23.5 | 0.00 | 0.01 | 0.01 | 100 | 1019.5 |
| 20260905144903 | 72 | 270 | 8.7 | 20.0 | 0.00 | 0.01 | 0.01 | 100 | 1019.5 |
| 20260905143703 | 72 | 251 | 13.0 | 20.0 | 0.00 | 0.01 | 0.01 | 100 | 1019.4 |
| 20260905142502 | 73 | 248 | 11.3 | 17.4 | 0.00 | 0.01 | 0.01 | 100 | 1019.4 |
| 20260905141301 | 73 | 237 | 11.3 | 19.1 | 0.00 | 0.01 | 0.01 | 100 | 1019.3 |
| 20260905134900 | 73 | 274 | 5.2 | 16.5 | 0.00 | 0.01 | 0.01 | 100 | 1019.3 |
| 20260905133659 | 72 | 240 | 11.3 | 18.2 | 0.00 | 0.01 | 0.01 | 100 | 1019.3 |
| 20260905132459 | 73 | 254 | 9.6 | 20.9 | 0.00 | 0.01 | 0.01 | 100 | 1019.2 |
| 20260905131258 | 73 | 241 | 13.0 | 17.4 | 0.00 | 0.01 | 0.01 | 100 | 1019.2 |
| 20260905130057 | 73 | 262 | 11.3 | 22.6 | 0.00 | 0.01 | 0.01 | 100 | 1019.1 |
| 20260905124857 | 73 | 257 | 8.7 | 20.0 | 0.00 | 0.01 | 0.01 | 100 | 1019.4 |
| 20260905123656 | 73 | 198 | 10.4 | 20.0 | 0.00 | 0.01 | 0.01 | 100 | 1019.3 |
| 20260905122455 | 74 | 251 | 8.7 | 18.2 | 0.00 | 0.01 | 0.01 | 100 | 1019.4 |
| 20260905121255 | 74 | 257 | 6.1 | 20.0 | 0.00 | 0.01 | 0.01 | 100 | 1019.4 |
| 20260905120054 | 74 | 267 | 2.6 | 16.5 | 0.00 | 0.01 | 0.01 | 100 | 1019.4 |
| 20260905114853 | 73 | 258 | 13.9 | 18.2 | 0.00 | 0.01 | 0.01 | 100 | 1019.3 |
| 20260905113653 | 72 | 251 | 12.2 | 20.0 | 0.00 | 0.01 | 0.01 | 100 | 1019.6 |
| 20260905112452 | 71 | 233 | 7.8 | 14.8 | 0.00 | 0.01 | 0.01 | 100 | 1019.5 |
| 20260905111251 | 73 | 243 | 12.2 | 18.2 | 0.00 | 0.01 | 0.01 | 100 | 1019.5 |
| 20260905110050 | 72 | 250 | 13.0 | 22.6 | 0.00 | 0.01 | 0.01 | 100 | 1019.4 |
| 20260905104850 | 72 | 216 | 11.3 | 19.1 | 0.00 | 0.01 | 0.01 | 100 | 1019.4 |
| 20260905103649 | 72 | 261 | 9.6 | 20.0 | 0.00 | 0.01 | 0.01 | 100 | 1019.6 |
| 20260905102448 | 72 | 209 | 7.0 | 20.0 | 0.00 | 0.01 | 0.01 | 100 | 1019.6 |
| 20260905101248 | 72 | 268 | 20.0 | 20.0 | 0.00 | 0.01 | 0.01 | 100 | 1019.5 |
| 20260905100047 | 71 | 230 | 7.8 | 17.4 | 0.00 | 0.01 | 0.01 | 100 | 1019.6 |
| 20260905094846 | 71 | 243 | 8.7 | 17.4 | 0.00 | 0.01 | 0.01 | 100 | 1019.5 |
| 20260905093646 | 70 | 248 | 9.6 | 19.1 | 0.00 | 0.01 | 0.01 | 100 | 1019.7 |
| 20260905092445 | 70 | 244 | 14.8 | 18.2 | 0.00 | 0.01 | 0.01 | 100 | 1019.6 |
| 20260905091244 | 70 | 243 | 12.2 | 13.9 | 0.00 | 0.01 | 0.01 | 100 | 1019.5 |
| 20260905090044 | 69 | 233 | 7.8 | 16.5 | 0.00 | 0.01 | 0.01 | 100 | 1019.7 |
| 20260905084843 | 68 | 285 | 7.0 | 16.5 | 0.00 | 0.01 | 0.01 | 100 | 1019.9 |
| 20260905083642 | 66 | 275 | 7.8 | 13.9 | 0.00 | 0.01 | 0.01 | 100 | 1019.9 |
| 20260905082442 | 65 | 217 | 4.3 | 13.0 | 0.00 | 0.01 | 0.01 | 100 | 1019.9 |
| 20260905081241 | 64 | 265 | 5.2 | 11.3 | 0.00 | 0.01 | 0.01 | 100 | 1019.5 |
| 20260905080040 | 64 | 189 | 7.0 | 13.0 | 0.00 | 0.01 | 0.01 | 100 | 1019.2 |
| 20260905074840 | 63 | 233 | 8.7 | 13.9 | 0.00 | 0.01 | 0.01 | 100 | 1019.4 |
| 20260905073639 | 63 | 174 | 6.1 | 14.8 | 0.01 | 0.01 | 0.01 | 100 | 1019.4 |
| 20260905072438 | 62 | 251 | 7.8 | 9.6 | 0.01 | 0.01 | 0.01 | 100 | 1019.4 |
| 20260905071238 | 62 | 222 | 7.0 | 8.7 | 0.01 | 0.01 | 0.01 | 100 | 1019.3 |
| 20260905070037 | 62 | 180 | 4.3 | 7.8 | 0.01 | 0.01 | 0.01 | 100 | 1019.2 |
| 20260905064836 | 62 | 185 | 5.2 | 6.1 | 0.01 | 0.01 | 0.01 | 100 | 1019.1 |
| 20260905063635 | 62 | 205 | 6.1 | 6.1 | 0.00 | 0.00 | 0.00 | 100 | 1019.0 |
| 20260905062435 | 62 | 225 | 3.5 | 7.0 | 0.00 | 0.00 | 0.00 | 100 | 1019.0 |
| 20260905061234 | 62 | 195 | 5.2 | 6.1 | 0.00 | 0.00 | 0.00 | 100 | 1018.6 |
| 20260905060033 | 62 | 201 | 3.5 | 7.8 | 0.00 | 0.00 | 0.00 | 100 | 1018.3 |
| 20260905054833 | 63 | 227 | 3.5 | 5.2 | 0.00 | 0.00 | 0.00 | 100 | 1018.2 |
| 20260905053632 | 63 | 232 | 3.5 | 7.0 | 0.00 | 0.00 | 0.00 | 100 | 1017.9 |
| 20260905052431 | 63 | 291 | 4.3 | 13.0 | 0.00 | 0.00 | 0.00 | 100 | 1018.3 |
| 20260905051231 | 64 | 284 | 3.5 | 13.9 | 0.00 | 0.00 | 0.00 | 100 | 1018.1 |
| 20260905050030 | 66 | 285 | 6.1 | 12.2 | 0.00 | 0.00 | 0.00 | 100 | 1017.8 |
| 20260905044829 | 66 | 298 | 4.3 | 8.7 | 0.00 | 0.00 | 0.00 | 100 | 1017.7 |
| 20260905043629 | 66 | 244 | 1.7 | 7.0 | 0.00 | 0.00 | 0.00 | 100 | 1017.5 |
| 20260905042428 | 66 | 191 | 1.7 | 7.8 | 0.00 | 0.00 | 0.00 | 100 | 1017.2 |
| 20260905041227 | 66 | 250 | 2.6 | 6.1 | 0.00 | 0.00 | 0.00 | 100 | 1016.9 |
| 20260905040027 | 66 | 206 | 4.3 | 5.2 | 0.00 | 0.00 | 0.00 | 100 | 1016.8 |
| 20260905034826 | 65 | 209 | 1.7 | 6.1 | 0.00 | 0.00 | 0.00 | 100 | 1016.7 |
| 20260905033625 | 65 | 268 | 3.5 | 8.7 | 0.00 | 0.00 | 0.00 | 100 | 1016.8 |
| 20260905032425 | 65 | 206 | 3.5 | 9.6 | 0.00 | 0.00 | 0.00 | 100 | 1016.4 |
| 20260905031224 | 66 | 206 | 6.1 | 8.7 | 0.00 | 0.00 | 0.00 | 100 | 1016.3 |
| 20260905030023 | 66 | 192 | 4.3 | 6.1 | 0.00 | 0.00 | 0.00 | 100 | 1015.8 |
| 20260905025626 | 66 | 189 | 3.5 | 8.7 | 0.00 | 0.00 | 0.00 | 100 | 1015.8 |
| 20260905024822 | 67 | 175 | 4.3 | 4.3 | 0.00 | 0.00 | 0.00 | 100 | 1015.9 |
| 20260905023622 | 67 | 22 | 0.9 | 1.7 | 0.00 | 0.00 | 0.00 | 100 | 1016.0 |
| 20260905022421 | 67 | 150 | 0.0 | 1.7 | 0.00 | 0.00 | 0.00 | 100 | 1016.1 |
| 20260905021220 | 67 | 206 | 0.9 | 3.5 | 0.00 | 0.00 | 0.00 | 100 | 1016.2 |
| 20260905020020 | 67 | 165 | 0.0 | 2.6 | 0.00 | 0.00 | 0.00 | 100 | 1015.9 |
| 20260905014819 | 67 | 182 | 0.0 | 1.7 | 0.00 | 0.00 | 0.00 | 100 | 1016.2 |
| 20260905013618 | 67 | 146 | 0.9 | 2.6 | 0.00 | 0.00 | 0.00 | 100 | 1016.0 |
| 20260905012418 | 67 | 285 | 0.9 | 1.7 | 0.00 | 0.00 | 0.00 | 100 | 1016.3 |
| 20260905011217 | 67 | 288 | 0.9 | 1.7 | 0.00 | 0.00 | 0.00 | 100 | 1015.9 |
| 20260905010016 | 68 | 180 | 0.9 | 1.7 | 0.00 | 0.00 | 0.00 | 100 | 1015.7 |
| 20260905004816 | 68 | 122 | 0.0 | 0.9 | 0.00 | 0.00 | 0.00 | 100 | 1015.5 |
| 20260905003615 | 68 | 46 | 0.0 | 0.0 | 0.00 | 0.00 | 0.00 | 100 | 1015.5 |
| 20260905002414 | 68 | 53 | 0.0 | 1.7 | 0.00 | 0.00 | 0.00 | 100 | 1015.4 |
| 20260905001214 | 68 | 57 | 1.7 | 3.5 | 0.00 | 0.00 | 0.00 | 100 | 1015.2 |
| 20260905000013 | 67 | 78 | 1.7 | 3.5 | 0.00 | 0.00 | 0.00 | 100 | 1015.1 |
| 20260904234812 | 67 | 354 | 2.6 | 3.5 | 0.00 | 0.00 | 0.00 | 100 | 1015.0 |
| 20260904233612 | 67 | 354 | 2.6 | 7.0 | 0.00 | 0.00 | 0.00 | 100 | 1015.0 |
| 20260904232411 | 67 | 357 | 3.5 | 7.0 | 0.00 | 0.00 | 0.00 | 100 | 1014.8 |
| 20260904231210 | 68 | 354 | 3.5 | 4.3 | 0.00 | 0.00 | 0.00 | 100 | 1014.7 |
| 20260904230009 | 68 | 345 | 4.3 | 9.6 | 0.00 | 0.00 | 0.00 | 100 | 1014.7 |
| 20260904224809 | 68 | 322 | 6.1 | 7.8 | 0.00 | 0.00 | 0.00 | 100 | 1014.6 |
| 20260904223608 | 69 | 344 | 3.5 | 9.6 | 0.00 | 0.00 | 0.00 | 100 | 1014.5 |
| 20260904222407 | 69 | 334 | 6.1 | 13.9 | 0.00 | 0.00 | 0.00 | 100 | 1014.2 |
| 20260904221207 | 70 | 326 | 10.4 | 17.4 | 0.00 | 0.00 | 0.00 | 100 | 1013.9 |
| 20260904220006 | 71 | 319 | 7.0 | 19.1 | 0.00 | 0.00 | 0.00 | 100 | 1013.6 |
| 20260904214805 | 73 | 320 | 9.6 | 19.1 | 0.00 | 0.00 | 0.00 | 100 | 1013.2 |
| 20260904213605 | 76 | 310 | 5.2 | 8.7 | 0.00 | 0.00 | 0.00 | 100 | 1012.7 |
| 20260904212404 | 76 | 230 | 5.2 | 12.2 | 0.00 | 0.00 | 0.00 | 100 | 1012.1 |
| 20260904211203 | 76 | 194 | 11.3 | 13.0 | 0.00 | 0.00 | 0.00 | 100 | 1012.0 |
| 20260904210003 | 76 | 154 | 0.9 | 8.7 | 0.00 | 0.00 | 0.00 | 100 | 1012.0 |
| 20260904204802 | 76 | 196 | 4.3 | 11.3 | 0.00 | 0.00 | 0.00 | 100 | 1012.0 |
| 20260904203601 | 76 | 151 | 7.0 | 12.2 | 0.00 | 0.00 | 0.00 | 100 | 1011.8 |
| 20260904202400 | 76 | 201 | 7.8 | 9.6 | 0.00 | 0.00 | 0.00 | 100 | 1011.8 |
| 20260904201200 | 76 | 206 | 6.1 | 15.6 | 0.00 | 0.00 | 0.00 | 100 | 1011.8 |
| 20260904195959 | 77 | 202 | 9.6 | 13.9 | 0.00 | 0.00 | 0.00 | 100 | 1011.7 |
| 20260904194758 | 76 | 189 | 4.3 | 7.8 | 0.00 | 0.00 | 0.00 | 100 | 1012.0 |
| 20260904193558 | 77 | 264 | 1.7 | 3.5 | 0.00 | 0.00 | 0.00 | 100 | 1012.3 |
| 20260904192357 | 77 | 223 | 2.6 | 6.1 | 0.00 | 0.00 | 0.00 | 100 | 1012.5 |
| 20260904191156 | 77 | 244 | 1.7 | 8.7 | 0.00 | 0.00 | 0.00 | 100 | 1012.7 |
| 20260904185956 | 77 | 226 | 5.2 | 6.1 | 0.00 | 0.00 | 0.00 | 100 | 1012.8 |
| 20260904184755 | 78 | 203 | 4.3 | 5.2 | 0.00 | 0.00 | 0.00 | 100 | 1012.9 |
| 20260904183554 | 79 | 241 | 4.3 | 6.1 | 0.00 | 0.00 | 0.00 | 100 | 1012.9 |
| 20260904182354 | 79 | 198 | 0.9 | 5.2 | 0.00 | 0.00 | 0.00 | 100 | 1012.9 |
| 20260904181153 | 79 | 198 | 0.9 | 6.1 | 0.00 | 0.00 | 0.00 | 100 | 1012.7 |
| 20260904175952 | 78 | 217 | 2.6 | 4.3 | 0.00 | 0.00 | 0.00 | 100 | 1012.5 |
| 20260904174752 | 78 | 210 | 4.3 | 6.1 | 0.00 | 0.00 | 0.00 | 100 | 1012.2 |
| 20260904173551 | 79 | 195 | 1.7 | 4.3 | 0.00 | 0.00 | 0.00 | 100 | 1012.0 |
| 20260904172350 | 79 | 220 | 1.7 | 5.2 | 0.00 | 0.00 | 0.00 | 100 | 1012.1 |
| 20260904171150 | 79 | 192 | 3.5 | 8.7 | 0.00 | 0.00 | 0.00 | 100 | 1012.1 |
| 20260904165949 | 80 | 194 | 4.3 | 11.3 | 0.00 | 0.00 | 0.00 | 100 | 1012.0 |